Jefferson, NC

10:50 PM EST on February 25, 2018 (GMT -0500)
Ashe County

Weather History for KGEV - January, 2001

Change the Weather History Date:

Tuesday, January 2, 2001

  Actual Average Record
Temperature  
Mean Temperature 18 °F -  
Max Temperature 21 °F 44 °F 62 °F (2005)
Min Temperature 14 °F 24 °F 3 °F (2018)
Degree Days  
Heating Degree Days 48    
Moisture  
Dew Point 8 °F    
Average Humidity 69    
Maximum Humidity 79    
Minimum Humidity 58    
Precipitation  
Precipitation 0.00 in - - ()
Sea Level Pressure  
Sea Level Pressure 30.26 in    
Wind  
Wind Speed 15 mph (NW)    
Max Wind Speed 22 mph    
Max Gust Speed 32 mph    
Visibility 8 miles    
Events Snow    
Averages and records for this station are not official NWS values.
T = Trace of Precipitation, MM = Missing Value Source: NWS Daily Summary

Daily Weather History Graph

Daily Weather History Graph

Search for Another Location

Airport or City:

Trip Planner

Search our weather history database for the weather conditions in past years. The results will help you decide how hot, cold, wet, or windy it might be!

Date:

Astronomy

Jan. 02, 2001 Rise Set
Actual Time 7:37 AM EST 5:22 PM EST
Civil Twilight 7:09 AM EST 5:50 PM EST
Nautical Twilight 6:36 AM EST 6:23 PM EST
Astronomical Twilight 6:05 AM EST 6:54 PM EST
Moon 12:23 PM EST (1/2) No Moon Set
Length of Visible Light 10h 41m
Length of Day
9h 44m
Waxing Crescent, 48% of the Moon is Illuminated
Jan 2
Waxing Crescent
Jan 2
First Quarter
Jan 9
Full
Jan 16
Last Quarter
Jan 24
New

Hourly Weather History & Observations

Time (EST) Temp. Windchill Dew Point Humidity Pressure Visibility Wind Dir Wind Speed Gust Speed Precip Events Conditions
12:17 AM 17.6 °F 2.2 °F 10.4 °F 73% 30.14 in 7.0 mi NW 17.3 mph 23.0 mph N/A   Scattered Clouds
12:37 AM 17.6 °F 2.7 °F 8.6 °F 68% 30.15 in 10.0 mi NW 16.1 mph 24.2 mph 0.00 in Snow Light Snow
12:57 AM 15.8 °F 0.3 °F 8.6 °F 73% 30.16 in 10.0 mi NW 16.1 mph 21.9 mph 0.00 in Snow Light Snow
1:17 AM 15.8 °F 4.2 °F 8.6 °F 73% 30.17 in 7.0 mi NW 9.2 mph - 0.00 in Snow Light Snow
1:37 AM 15.8 °F 0.3 °F 8.6 °F 73% 30.16 in 10.0 mi NNW 16.1 mph 19.6 mph 0.00 in Snow Light Snow
1:57 AM 15.8 °F 1.4 °F 10.4 °F 79% 30.18 in 5.0 mi NW 13.8 mph 26.5 mph 0.00 in Snow Light Snow
2:17 AM 15.8 °F 1.4 °F 10.4 °F 79% 30.18 in 7.0 mi NNW 13.8 mph 21.9 mph 0.00 in Snow Light Snow
2:37 AM 15.8 °F 0.3 °F 8.6 °F 73% 30.18 in 5.0 mi NW 16.1 mph 25.3 mph 0.00 in Snow Light Snow
2:57 AM 15.8 °F -0.6 °F 8.6 °F 73% 30.19 in 7.0 mi NW 18.4 mph 26.5 mph 0.00 in Snow Light Snow
3:17 AM 15.8 °F 2.7 °F 8.6 °F 73% 30.21 in 7.0 mi NNW 11.5 mph 19.6 mph 0.00 in Snow Light Snow
3:37 AM 15.8 °F 0.9 °F 8.6 °F 73% 30.21 in 10.0 mi NW 15.0 mph 24.2 mph 0.00 in Snow Light Snow
3:57 AM 15.8 °F 3.4 °F 8.6 °F 73% 30.22 in 10.0 mi NNW 10.4 mph 17.3 mph 0.00 in Snow Light Snow
4:17 AM 15.8 °F 2.1 °F 8.6 °F 73% 30.22 in 10.0 mi NNW 12.7 mph 19.6 mph 0.00 in Snow Light Snow
4:37 AM 15.8 °F 1.4 °F 8.6 °F 73% 30.21 in 10.0 mi NW 13.8 mph 19.6 mph 0.00 in Snow Light Snow
4:57 AM 15.8 °F 1.4 °F 8.6 °F 73% 30.22 in 10.0 mi NW 13.8 mph 28.8 mph 0.00 in Snow Light Snow
5:17 AM 15.8 °F -0.2 °F 8.6 °F 73% 30.23 in 10.0 mi NW 17.3 mph 25.3 mph 0.00 in Snow Light Snow
5:37 AM 15.8 °F 0.9 °F 6.8 °F 68% 30.23 in 10.0 mi NW 15.0 mph 21.9 mph N/A   Scattered Clouds
5:57 AM 14.0 °F -0.2 °F 8.6 °F 79% 30.24 in 10.0 mi NW 12.7 mph 19.6 mph 0.00 in Snow Light Snow
6:17 AM 14.0 °F 2.0 °F 8.6 °F 79% 30.25 in 7.0 mi NW 9.2 mph 21.9 mph 0.00 in Snow Light Snow
6:37 AM 14.0 °F -0.8 °F 8.6 °F 79% 30.25 in 10.0 mi NW 13.8 mph 21.9 mph 0.00 in Snow Light Snow
6:57 AM 14.0 °F 1.2 °F 6.8 °F 73% 30.26 in 10.0 mi NW 10.4 mph 17.3 mph N/A   Clear
7:17 AM 14.0 °F 1.2 °F 5.0 °F 67% 30.26 in 10.0 mi NW 10.4 mph 20.7 mph N/A   Clear
7:37 AM 14.0 °F -0.8 °F 5.0 °F 67% 30.27 in 10.0 mi NW 13.8 mph 20.7 mph N/A   Clear
7:57 AM 14.0 °F 0.5 °F 6.8 °F 73% 30.27 in 10.0 mi NW 11.5 mph 20.7 mph N/A   Clear
8:17 AM 14.0 °F -2.5 °F 8.6 °F 79% 30.27 in 4.0 mi NW 17.3 mph 25.3 mph 0.00 in Snow Light Snow
8:37 AM 15.8 °F -0.6 °F 8.6 °F 73% 30.28 in 5.0 mi WNW 18.4 mph 24.2 mph 0.00 in Snow Light Snow
8:57 AM 15.8 °F 0.9 °F 8.6 °F 73% 30.29 in 10.0 mi NW 15.0 mph 23.0 mph 0.00 in Snow Light Snow
9:17 AM 17.6 °F 5.7 °F 8.6 °F 68% 30.29 in 5.0 mi NW 10.4 mph 18.4 mph 0.00 in Snow Light Snow
9:37 AM 17.6 °F 3.7 °F 10.4 °F 73% 30.30 in 3.0 mi NW 13.8 mph 27.6 mph 0.00 in Snow Light Snow
9:57 AM 19.4 °F 4.1 °F 10.4 °F 68% 30.31 in 3.0 mi NW 18.4 mph 29.9 mph 0.00 in Snow Light Snow
10:17 AM 19.4 °F 5.5 °F 10.4 °F 68% 30.32 in 5.0 mi NW 15.0 mph 26.5 mph 0.00 in Snow Light Snow
10:37 AM 19.4 °F 6.0 °F 10.4 °F 68% 30.32 in 7.0 mi NW 13.8 mph 26.5 mph 0.00 in Snow Light Snow
10:57 AM 19.4 °F 5.0 °F 8.6 °F 63% 30.33 in 10.0 mi NW 16.1 mph 27.6 mph 0.00 in Snow Light Snow
11:17 AM 19.4 °F 4.1 °F 8.6 °F 63% 30.32 in 10.0 mi WNW 18.4 mph 29.9 mph N/A   Scattered Clouds
11:37 AM 19.4 °F 2.8 °F 8.6 °F 63% 30.31 in 10.0 mi NW 21.9 mph 32.2 mph N/A   Scattered Clouds
11:57 AM 19.4 °F 6.6 °F 8.6 °F 63% 30.31 in 10.0 mi NW 12.7 mph 28.8 mph N/A   Mostly Cloudy
12:17 PM 19.4 °F 4.5 °F 8.6 °F 63% 30.30 in 10.0 mi NW 17.3 mph 28.8 mph 0.00 in Snow Light Snow
12:37 PM 19.4 °F 4.1 °F 6.8 °F 58% 30.30 in 10.0 mi NNW 18.4 mph 29.9 mph N/A   Overcast
12:57 PM 21.2 °F 8.9 °F 8.6 °F 58% 30.29 in 10.0 mi NW 12.7 mph 23.0 mph 0.00 in Snow Light Snow
1:17 PM 19.4 °F 7.2 °F 6.8 °F 58% 30.29 in 10.0 mi WNW 11.5 mph 29.9 mph N/A   Overcast
1:37 PM 19.4 °F 7.2 °F 6.8 °F 58% 30.30 in 10.0 mi NNW 11.5 mph 23.0 mph N/A   Overcast
1:57 PM 19.4 °F 5.0 °F 8.6 °F 63% 30.30 in 7.0 mi NW 16.1 mph 23.0 mph 0.00 in Snow Light Snow
2:17 PM 19.4 °F 6.0 °F 8.6 °F 63% 30.29 in 3.0 mi NW 13.8 mph 25.3 mph 0.00 in Snow Light Snow
2:37 PM 19.4 °F 6.6 °F 8.6 °F 63% 30.29 in 2.5 mi NW 12.7 mph 24.2 mph 0.00 in Snow Light Snow
2:57 PM 19.4 °F 4.1 °F 8.6 °F 63% 30.29 in 3.0 mi NW 18.4 mph 27.6 mph 0.00 in Snow Light Snow
3:17 PM 19.4 °F 7.9 °F 8.6 °F 63% 30.30 in 7.0 mi NW 10.4 mph 23.0 mph 0.00 in Snow Light Snow
3:37 PM 19.4 °F 4.5 °F 10.4 °F 68% 30.30 in 1.0 mi NW 17.3 mph 24.2 mph 0.00 in Snow Light Snow
3:57 PM 19.4 °F 5.5 °F 10.4 °F 68% 30.29 in 0.8 mi NW 15.0 mph 24.2 mph 0.00 in Snow Light Snow
4:17 PM 19.4 °F 5.0 °F 10.4 °F 68% 30.29 in 1.8 mi WNW 16.1 mph 21.9 mph 0.00 in Snow Light Snow
4:37 PM 19.4 °F 7.2 °F 10.4 °F 68% 30.29 in 5.0 mi NNW 11.5 mph 18.4 mph 0.00 in Snow Light Snow
4:57 PM 17.6 °F 3.7 °F 6.8 °F 63% 30.28 in 10.0 mi NW 13.8 mph 19.6 mph N/A   Scattered Clouds
5:17 PM 17.6 °F 3.2 °F 6.8 °F 63% 30.28 in 10.0 mi NW 15.0 mph 27.6 mph N/A   Scattered Clouds
5:37 PM 17.6 °F 5.0 °F 5.0 °F 58% 30.28 in 10.0 mi WNW 11.5 mph 16.1 mph N/A   Clear
5:57 PM 15.8 °F 3.4 °F 5.0 °F 62% 30.28 in 10.0 mi WNW 10.4 mph 18.4 mph N/A   Clear
6:17 PM 15.8 °F 6.1 °F 5.0 °F 62% 30.29 in 10.0 mi NW 6.9 mph 20.7 mph N/A   Clear
6:37 PM 15.8 °F 6.1 °F 6.8 °F 68% 30.29 in 10.0 mi NW 6.9 mph 26.5 mph N/A   Clear
6:57 PM 15.8 °F 1.4 °F 6.8 °F 68% 30.29 in 10.0 mi NW 13.8 mph 23.0 mph N/A   Clear
7:17 PM 15.8 °F 0.9 °F 8.6 °F 73% 30.29 in 10.0 mi NW 15.0 mph 20.7 mph N/A   Clear
7:37 PM 15.8 °F 1.4 °F 8.6 °F 73% 30.29 in 10.0 mi NW 13.8 mph 29.9 mph N/A   Clear
7:57 PM 15.8 °F 0.3 °F 8.6 °F 73% 30.29 in 10.0 mi NW 16.1 mph 25.3 mph N/A   Clear
8:17 PM 14.0 °F -2.0 °F 6.8 °F 73% 30.28 in 10.0 mi NW 16.1 mph 25.3 mph N/A   Clear
8:37 PM 14.0 °F -0.8 °F 6.8 °F 73% 30.29 in 10.0 mi NW 13.8 mph 24.2 mph N/A   Clear
8:57 PM 14.0 °F 3.9 °F 6.8 °F 73% 30.30 in 10.0 mi WNW 6.9 mph - N/A   Clear
9:17 PM 14.0 °F 2.9 °F 5.0 °F 67% 30.30 in 10.0 mi West 8.1 mph 18.4 mph N/A   Clear
9:37 PM 14.0 °F 5.1 °F 5.0 °F 67% 30.30 in 10.0 mi NW 5.8 mph - N/A   Clear
9:57 PM 14.0 °F - 5.0 °F 67% 30.30 in 10.0 mi Calm Calm - N/A   Clear
10:17 PM 14.0 °F - 5.0 °F 67% 30.30 in 10.0 mi Calm Calm - N/A   Clear
10:37 PM 14.0 °F 8.2 °F 5.0 °F 67% 30.30 in 10.0 mi WNW 3.5 mph - N/A   Clear
10:57 PM 14.0 °F 8.2 °F 5.0 °F 67% 30.30 in 10.0 mi NE 3.5 mph - N/A   Clear
11:17 PM 14.0 °F - 6.8 °F 73% 30.30 in 10.0 mi Calm Calm - N/A   Clear
11:37 PM 14.0 °F 3.9 °F 6.8 °F 73% 30.30 in 10.0 mi West 6.9 mph - N/A   Clear
11:57 PM 14.0 °F 2.9 °F 5.0 °F 67% 30.29 in 10.0 mi WNW 8.1 mph - N/A   Clear